Chicago Executive, IL

7:54 PM CST on November 16, 2019 (GMT -0600)
Chicago Executive

Weather History for KPWK - October, 2019

Change the Weather History Date:

Monday, October 21, 2019

  Actual Average Record
Temperature  
Mean Temperature 59 °F 50 °F  
Max Temperature 68 °F 60 °F 80 °F (2007)
Min Temperature 50 °F 41 °F 28 °F (2018)
Degree Days  
Heating Degree Days 6 15  
Month to date heating degree days 207 243  
Since 1 July heating degree days 214 355  
Cooling Degree Days 0 0  
Month to date cooling degree days 13 11  
Year to date cooling degree days 996 789  
Growing Degree Days 9 (Base 50)    
Moisture  
Dew Point 49 °F    
Average Humidity 73    
Maximum Humidity 97    
Minimum Humidity 43    
Precipitation  
Precipitation 0.07 in 0.10 in 0.08 in (2006)
Month to date precipitation 2.38 2.05  
Year to date precipitation 39.07 27.74  
Sea Level Pressure  
Sea Level Pressure 29.59 in    
Wind  
Wind Speed 9 mph ()    
Max Wind Speed 31 mph    
Max Gust Speed 43 mph    
Visibility 7.8 miles    
Events Fog , Rain    
T = Trace of Precipitation, MM = Missing Value Source: Averaged Metar Reports

Daily Weather History Graph

Daily Weather History Graph

Search for Another Location

Airport or City:

Astronomy

Oct. 21, 2019 Rise Set
Actual Time 7:10 AM CDT 6:00 PM CDT
Civil Twilight 6:42 AM CDT 6:29 PM CDT
Nautical Twilight 6:09 AM CDT 7:01 PM CDT
Astronomical Twilight 5:37 AM CDT 7:34 PM CDT
Moon No Moon Rise 2:32 PM CDT (10/21)
Length of Visible Light 11h 46m
Length of Day
10h 49m
Waning Gibbous, 48% of the Moon is Illuminated
Oct 21
Waning Gibbous
Oct 27
New
Nov 4
First Quarter
Nov 12
Full
Nov 19
Last Quarter

Hourly Weather History & Observations

Time (CDT) Temp. Dew Point Humidity Pressure Visibility Wind Dir Wind Speed Gust Speed Precip Events Conditions
12:52 AM 50.0 °F 48.0 °F 93% 29.87 in 0.5 mi East 6.9 mph - N/A Fog Fog
1:52 AM 51.1 °F 50.0 °F 96% 29.86 in 0.2 mi NE 5.8 mph - N/A Fog Fog
2:34 AM 52.0 °F 50.0 °F 93% 29.85 in 1.2 mi ENE 4.6 mph - N/A   Overcast
2:48 AM 51.8 °F 50.0 °F 94% 29.83 in 2.5 mi ENE 4.6 mph - N/A   Overcast
2:52 AM 52.0 °F 50.0 °F 93% 29.83 in 3.0 mi ENE 3.5 mph - N/A   Overcast
3:52 AM 52.0 °F 51.1 °F 97% 29.79 in 4.0 mi ENE 4.6 mph - N/A   Overcast
4:25 AM 52.0 °F 50.0 °F 93% 29.76 in 6.0 mi ENE 3.5 mph - N/A   Overcast
4:52 AM 53.1 °F 50.0 °F 89% 29.75 in 7.0 mi East 3.5 mph - N/A   Overcast
5:52 AM 55.9 °F 50.0 °F 80% 29.70 in 10.0 mi East 6.9 mph - N/A   Overcast
6:52 AM 57.9 °F 50.0 °F 75% 29.65 in 10.0 mi ESE 9.2 mph - N/A   Overcast
7:52 AM 59.0 °F 50.0 °F 72% 29.62 in 10.0 mi SE 13.8 mph 23.0 mph N/A   Scattered Clouds
8:52 AM 60.1 °F 51.1 °F 72% 29.56 in 6.0 mi ESE 17.3 mph 27.6 mph 0.01 in Rain Light Rain
9:52 AM 59.0 °F 53.1 °F 81% 29.49 in 10.0 mi ESE 21.9 mph 33.4 mph 0.02 in   Mostly Cloudy
10:52 AM 62.1 °F 55.9 °F 80% 29.46 in 10.0 mi SSE 16.1 mph 21.9 mph N/A   Overcast
11:52 AM 63.0 °F 55.9 °F 78% 29.46 in 10.0 mi SSE 26.5 mph 36.8 mph N/A   Overcast
12:52 PM 63.0 °F 55.9 °F 78% 29.43 in 10.0 mi SSE 20.7 mph 38.0 mph N/A   Overcast
1:52 PM 64.9 °F 57.0 °F 75% 29.42 in 10.0 mi South 21.9 mph 38.0 mph 0.00 in   Overcast
2:52 PM 66.0 °F 55.9 °F 70% 29.41 in 10.0 mi SSW 11.5 mph 29.9 mph N/A   Overcast
2:59 PM 64.9 °F 55.0 °F 70% 29.42 in 7.0 mi SW 11.5 mph 20.7 mph 0.02 in Rain Light Rain
3:15 PM 64.0 °F 57.0 °F 78% 29.42 in 10.0 mi SSW 10.4 mph 26.5 mph 0.04 in Rain Light Rain
3:52 PM 68.0 °F 57.0 °F 68% 29.42 in 10.0 mi South 15.0 mph 26.5 mph 0.04 in   Mostly Cloudy
4:52 PM 66.0 °F 43.0 °F 43% 29.44 in 10.0 mi SSW 18.4 mph 28.8 mph N/A   Clear
5:52 PM 62.1 °F 39.9 °F 44% 29.49 in 10.0 mi SSW 15.0 mph 29.9 mph N/A   Partly Cloudy
6:52 PM 60.1 °F 41.0 °F 49% 29.51 in 10.0 mi SW 11.5 mph 21.9 mph N/A   Mostly Cloudy
7:52 PM 57.0 °F 39.9 °F 53% 29.55 in 10.0 mi SW 20.7 mph 33.4 mph N/A   Scattered Clouds
8:52 PM 55.0 °F 36.0 °F 49% 29.55 in 10.0 mi SSW 11.5 mph 25.3 mph N/A   Overcast
9:52 PM 54.0 °F 37.0 °F 53% 29.55 in 10.0 mi SSW 12.7 mph 20.7 mph N/A   Clear
10:52 PM 54.0 °F 37.9 °F 55% 29.54 in 10.0 mi SSW 16.1 mph 25.3 mph N/A   Clear
11:52 PM 53.1 °F 37.9 °F 57% 29.52 in 10.0 mi SSW 18.4 mph - N/A   Clear